SCP
0 0 0 0 0 0 0 0 0 0 0 0 0 0 0 0 0 0 0 0 0 0 0 0 0 0 0 0 1 1 1 1 1 1 1 0 0 0 0 0 0 0 0
0 0 0 0 0 0 0 0 0 0 0 0 0 0 0 0 0 0 0 0 0 0 0 0 0 0 0 0 1 1 1 1 1 1 1 0 0 0 0 0 0 0 0
0 0 0 0 0 0 0 0 0 0 0 0 0 0 0 0 0 0 0 0 0 0 0 0 0 0 0 0 1 1 0 1 1 1 0 0 1 1 1 1 0 0 0
0 0 0 0 0 0 0 0 0 0 0 0 0 0 0 0 0 0 0 0 0 0 0 0 0 0 0 1 1 0 0 0 0 0 0 1 1 1 1 1 0 0 0
0 0 0 0 0 0 0 0 0 0 0 0 0 0 0 0 0 0 0 0 0 0 0 0 0 0 0 0 0 0 0 0 0 0 0 1 1 1 1 1 0 0 0
0 0 0 0 0 0 0 0 0 0 0 0 0 0 0 0 0 0 0 0 0 0 0 0 0 0 0 0 0 0 0 0 0 0 0 0 1 1 1 0 0 0 0
0 0 0 0 1 0 0 0 0 0 0 0 0 0 0 0 0 0 0 0 0 0 0 0 0 0 0 0 0 0 0 0 0 0 0 0 0 0 0 0 0 0 0
0 0 0 0 1 1 1 1 1 1 1 1 0 0 0 0 0 0 0 0 0 0 0 0 0 0 0 0 0 0 0 0 0 0 0 0 0 0 0 0 0 0 0
0 0 0 0 0 1 1 1 1 1 1 1 1 0 0 0 0 0 0 0 0 0 0 0 0 0 0 0 0 0 0 0 0 0 0 0 0 0 0 0 0 0 0
0 0 0 0 0 0 1 1 1 1 1 1 1 0 0 0 0 0 0 0 0 0 0 0 0 0 0 0 0 0 0 0 0 0 0 0 0 0 0 0 0 0 0
0 0 0 0 0 0 1 1 1 1 1 1 1 0 0 0 0 0 0 0 0 0 0 0 0 0 0 0 0 0 0 0 0 0 0 0 0 0 0 0 0 0 0
0 0 0 0 1 1 1 1 1 1 1 1 1 1 1 0 0 0 0 0 0 0 0 0 0 0 0 0 0 0 0 0 0 0 0 0 0 0 0 0 0 0 0
1 1 1 1 1 1 1 1 1 1 1 1 1 1 1 1 1 0 0 0 0 0 0 0 0 0 0 0 0 0 0 0 0 0 0 0 0 0 0 0 0 0 0
1 1 1 1 1 1 1 1 1 1 1 1 1 1 1 1 1 0 0 0 0 0 0 0 0 0 0 0 0 0 0 0 0 0 0 0 0 0 0 0 0 0 0
1 1 1 1 1 1 1 1 1 1 1 1 1 1 1 1 1 1 1 0 0 0 0 0 0 0 0 0 0 0 0 0 0 0 0 0 0 0 0 0 0 0 0
1 1 1 1 1 1 1 1 1 1 1 1 1 1 1 1 1 1 1 1 0 0 0 0 0 0 0 0 0 0 0 0 0 0 0 0 0 0 0 0 0 0 0
1 1 1 1 1 1 1 1 1 1 1 1 1 1 1 1 1 1 1 1 1 1 1 0 0 0 0 0 0 0 0 0 0 0 0 0 0 0 0 0 0 0 0
1 1 1 1 1 1 1 1 2 2 2 1 1 1 1 1 1 1 1 1 1 1 1 1 0 0 0 0 0 0 0 0 0 0 0 0 0 0 0 0 0 0 0
1 1 1 1 1 1 1 2 2 2 2 1 2 2 1 1 1 1 1 1 1 1 1 1 1 1 0 0 0 0 0 0 0 0 0 0 0 0 0 0 0 0 0
1 1 1 1 1 1 1 2 2 2 2 2 2 2 2 2 2 2 2 1 1 1 1 1 1 1 1 0 0 0 0 0 0 0 0 0 0 0 0 0 0 0 0
1 1 1 1 1 1 1 2 2 2 3 3 3 2 2 2 2 2 2 2 2 2 2 1 1 1 1 1 0 0 0 0 0 0 0 0 0 0 0 0 0 0 0
1 1 1 1 1 1 1 1 2 2 3 3 3 3 2 2 2 2 2 2 2 2 2 1 1 1 1 1 1 1 1 1 0 0 0 0 0 0 0 0 0 0 0
1 1 1 1 0 1 1 1 2 2 3 3 3 3 2 2 2 2 2 2 2 1 1 1 1 1 1 1 1 1 1 1 1 1 0 0 0 0 0 0 0 0 0
0 0 0 0 0 1 1 1 2 2 2 2 2 3 3 3 2 2 2 2 1 1 2 2 2 2 1 1 1 1 1 1 1 1 1 0 0 0 0 0 0 0 0
0 0 0 0 0 1 1 1 1 2 2 2 2 2 3 3 3 2 2 2 2 2 2 2 2 2 1 2 2 1 1 1 1 1 1 1 1 0 0 0 1 1 1
0 0 0 0 0 1 1 1 1 2 2 2 2 2 2 3 3 3 2 2 2 2 2 2 2 2 1 2 2 2 1 1 1 1 1 1 1 1 0 1 1 1 1
Wind_Speed
11 12 14 12 11 11 11 11 11 11 10 10 10 10 9 8 7 6 6 5 5 4 4 4 4 5 5 6 6 6 6 6 6 7 7 7 7 7 7 6 3 8 9
14 14 15 13 12 12 11 11 11 10 10 10 9 9 8 8 7 6 5 5 4 4 3 4 4 5 5 5 5 6 6 6 7 7 6 8 8 7 7 5 6 7 7
15 14 15 14 13 12 12 11 11 10 10 9 9 9 8 7 7 6 5 5 4 4 3 3 4 5 5 5 6 5 5 6 6 5 2 5 8 7 7 7 7 7 7
15 13 13 15 13 12 11 11 11 10 10 9 9 8 8 7 7 6 5 5 4 4 3 3 4 4 5 5 5 5 4 5 5 3 2 5 6 8 7 7 7 7 6
13 12 13 14 13 12 11 11 10 10 9 9 9 8 8 7 6 6 5 5 4 4 3 3 3 4 4 4 4 4 4 5 4 2 5 5 6 7 7 6 6 6 6
12 11 13 12 12 12 11 11 10 10 9 9 9 8 8 7 7 6 5 5 5 4 3 3 3 4 4 4 4 4 4 4 4 3 4 3 6 6 6 6 6 7 7
12 10 13 12 11 11 10 10 10 10 10 9 9 8 8 7 7 6 5 5 5 4 4 3 3 4 3 3 3 3 4 3 2 3 3 3 6 5 5 6 6 6 7
10 10 11 12 10 10 10 10 10 10 10 9 9 8 8 7 7 6 5 5 4 4 4 4 4 4 4 3 3 3 3 4 4 4 3 4 6 4 4 5 5 6 6
8 8 8 11 11 10 9 9 10 10 10 10 9 8 8 7 7 6 5 5 4 4 4 4 4 4 4 3 3 3 3 1 2 2 4 4 5 4 4 5 5 5 6
6 7 8 7 8 9 10 11 10 10 10 10 10 9 8 8 8 7 8 6 5 5 4 4 5 5 4 4 3 3 3 5 2 3 3 6 4 3 4 4 4 5 6
4 5 6 6 6 6 6 8 10 11 11 10 11 11 9 9 9 9 7 7 5 5 5 5 5 5 5 6 4 3 5 3 4 1 3 7 3 3 4 4 4 5 5
3 5 6 7 7 7 6 6 6 8 9 10 9 10 9 7 5 4 10 6 6 6 6 5 4 6 8 6 8 7 4 4 3 2 5 5 2 3 4 4 4 4 5
5 4 5 7 7 7 5 5 4 4 5 8 9 8 7 6 5 6 5 8 8 9 8 8 9 7 6 3 3 5 3 3 2 2 6 5 2 3 4 4 4 4 4
9 9 8 7 7 8 8 6 6 5 5 6 7 9 6 5 5 5 4 5 5 5 4 5 5 6 6 7 7 6 6 3 2 2 6 5 2 2 3 4 4 3 3
10 10 10 9 8 7 7 6 7 7 7 7 6 7 8 6 7 6 5 5 6 5 6 6 6 6 6 6 5 5 5 4 3 3 5 6 3 1 2 3 4 3 3
10 10 10 9 8 7 6 7 7 7 7 7 6 8 9 7 7 6 7 6 6 6 5 6 7 5 6 5 6 6 5 4 4 3 3 7 6 3 1 2 3 3 3
9 9 9 9 8 8 7 7 7 7 7 6 6 8 9 9 8 8 7 7 6 7 8 6 7 6 5 5 6 6 5 5 4 4 4 2 6 7 4 2 1 2 3
9 9 8 7 8 8 7 7 6 6 6 5 5 6 9 10 10 8 7 7 7 6 6 6 6 6 6 6 6 6 5 5 7 4 4 5 3 4 8 5 2 1 3
9 9 9 8 8 8 7 6 6 6 6 5 5 5 8 10 11 9 7 7 8 6 6 7 7 7 7 6 5 5 5 5 5 6 6 5 5 4 4 8 6 3 2
9 9 8 8 7 8 6 5 4 5 5 4 4 6 8 8 10 9 7 8 8 6 7 7 7 6 6 5 6 6 5 5 5 6 5 4 5 6 4 5 6 7 6
10 10 10 9 8 6 5 5 4 4 4 4 4 6 7 8 9 9 8 9 8 8 9 9 8 9 7 7 6 6 6 8 7 5 6 5 6 5 6 6 4 4 6
12 11 11 10 9 8 5 5 5 5 5 4 4 6 8 9 9 8 9 7 8 8 9 9 8 7 7 7 7 5 6 7 6 7 7 6 7 6 7 7 7 6 4
12 12 10 10 10 8 8 6 5 5 4 4 5 5 7 9 10 9 9 8 8 8 8 9 9 10 8 8 8 6 6 6 5 6 8 8 7 5 6 6 7 7 7
13 12 12 11 9 8 7 6 6 5 5 5 5 5 6 7 9 9 10 10 10 9 9 10 10 9 8 7 7 7 7 4 4 4 5 6 6 7 7 6 6 6 6
13 12 11 10 9 8 7 6 6 6 5 5 5 6 6 6 8 9 9 10 10 8 10 10 9 10 8 8 6 6 7 4 8 5 4 4 5 5 5 6 5 5 6
12 11 10 10 9 8 7 6 5 6 6 6 5 5 4 3 4 7 8 9 9 8 9 9 9 10 8 8 6 5 5 5 6 6 6 5 4 3 3 2 4 4 4
Wind_Direction
154 149 141 149 143 138 134 131 132 134 137 139 143 147 151 154 155 155 155 153 150 147 142 137 133 128 122 121 117 109 101 97 90 85 87 94 98 101 99 101 127 103 102
148 146 143 148 145 142 138 134 134 134 135 135 137 139 142 144 144 143 144 145 143 140 137 135 131 128 125 125 118 109 101 96 89 86 98 109 95 93 99 87 43 85 108
145 144 148 150 147 145 141 139 137 136 136 136 136 137 138 140 140 139 139 138 136 135 134 131 129 128 126 121 116 111 106 102 98 97 180 108 102 90 92 92 87 95 104
146 148 148 148 149 147 145 143 140 139 140 139 138 139 139 140 140 141 140 139 137 135 130 125 128 129 122 114 115 117 115 112 111 200 134 84 92 88 85 89 91 91 97
148 149 139 151 152 151 150 148 145 145 145 144 143 143 143 143 143 142 139 136 133 131 126 122 125 127 124 118 119 124 128 123 131 222 77 77 80 83 81 81 85 88 90
151 151 144 157 156 157 157 155 153 153 154 153 152 152 150 150 150 148 146 141 135 132 125 114 118 127 128 125 124 124 126 134 188 101 93 93 90 85 84 83 82 84 87
157 155 150 160 162 164 164 163 160 161 162 162 161 160 158 156 153 150 148 142 137 133 126 118 119 122 123 120 123 126 124 158 154 110 108 90 84 87 86 87 85 85 86
161 162 155 160 170 171 171 171 171 171 171 170 169 169 168 165 161 158 153 146 137 128 121 117 117 119 119 121 128 129 139 227 144 129 114 93 87 98 94 90 87 88 88
169 174 177 171 177 181 185 187 185 182 180 180 178 177 178 175 171 169 165 161 152 142 133 127 122 120 117 121 127 128 131 289 164 132 124 96 96 104 97 90 87 85 87
186 191 196 195 194 191 189 193 199 195 190 189 187 187 187 184 183 181 187 168 170 162 149 137 129 122 119 117 118 123 151 206 155 150 115 95 100 106 103 96 91 87 85
214 223 223 218 217 224 221 189 200 202 200 197 195 194 202 206 195 189 177 153 179 174 163 151 142 135 145 139 128 152 210 190 143 134 87 84 99 111 108 102 95 94 89
252 248 245 245 236 231 231 224 221 212 203 210 210 198 210 214 212 216 131 176 193 185 178 168 159 179 215 178 158 198 196 174 172 148 98 95 104 120 120 112 102 98 94
348 328 287 269 254 250 238 238 234 230 223 224 222 215 220 218 208 213 186 182 194 197 198 170 199 206 205 184 191 187 167 189 169 148 107 108 109 118 121 116 107 103 98
11 360 343 317 287 261 250 246 242 237 229 229 227 226 219 222 228 216 214 208 199 203 206 213 219 198 206 197 201 191 173 197 163 133 106 112 118 131 132 125 117 112 104
8 359 352 343 327 303 277 260 252 246 243 236 233 240 228 224 228 221 218 209 219 212 200 214 220 202 212 210 212 214 192 182 179 157 123 127 131 146 150 148 140 134 124
2 354 347 343 336 320 298 272 260 256 247 253 242 240 238 232 235 230 231 215 220 218 216 214 213 202 213 210 212 212 218 196 197 170 149 146 154 153 179 187 168 162 163
354 348 345 339 341 331 315 296 278 264 255 246 246 249 244 239 238 234 235 224 217 212 213 215 207 212 214 207 211 212 209 215 218 190 160 169 158 162 176 214 209 186 182
346 343 340 337 338 333 322 306 289 274 265 250 247 249 251 245 241 238 235 233 227 216 213 205 215 209 207 211 209 199 200 188 219 201 190 183 171 161 166 171 199 211 198
340 337 336 335 332 327 318 301 290 281 267 255 250 247 251 249 246 237 234 232 222 214 212 210 209 214 214 213 215 206 214 200 206 206 214 192 166 184 165 148 174 180 174
340 334 331 328 325 323 317 306 292 274 264 250 249 253 254 252 250 241 233 233 227 216 212 213 208 216 226 218 223 212 214 212 213 216 225 207 203 190 180 166 181 170 173
342 338 332 327 324 322 316 311 305 288 275 262 246 247 251 249 247 241 234 228 220 218 215 212 210 210 217 216 219 215 215 222 226 201 223 222 215 198 200 190 200 181 166
341 337 330 326 324 322 313 301 287 286 279 267 255 246 242 243 242 238 235 229 223 220 219 216 213 214 212 210 216 216 219 213 220 224 218 228 233 200 220 215 199 192 201
341 335 328 323 318 316 313 302 297 288 272 260 251 247 244 241 237 233 231 230 227 220 217 215 210 212 212 212 218 214 219 221 202 208 218 220 229 227 225 232 227 208 197
341 336 329 324 318 316 312 303 299 290 286 281 271 259 253 243 239 233 230 229 225 222 220 216 213 214 213 212 216 230 243 241 217 200 204 219 221 226 231 224 235 237 216
343 339 332 329 325 323 317 309 299 294 291 286 277 266 259 244 233 229 226 227 225 221 223 221 215 214 213 214 208 207 224 233 241 237 220 206 203 214 224 230 229 236 235
348 346 344 337 335 334 327 320 311 309 309 302 287 270 257 246 235 228 222 222 221 219 218 216 212 212 214 218 213 209 206 211 223 227 233 229 223 210 216 227 242 238 238